Volver al catálogo

STARLINK-35873

ActivoComunicacionesVLEO
NORAD 67860·PAYLOAD·🇺🇸 United States

Lanzado Feb 20, 2026 desde Vandenberg Space Force Base

Loading…

Próximos Pases (próximas 24 horas)

TLE

ActualizadoSource: CelesTrak SupGP

Época: Sep 14, 2026, 22:49 UTC

1 67860C 26034L   26257.95118056  .00018153  00000+0  53583-3 0  2570
2 67860  53.1598  43.3552 0001504  94.5298  53.1265 15.34410212    15

Sigue STARLINK-35873 en tiempo real con AllMySat

Download on the App Store